Regional Weather Roundup
Issued by NWS

Home | Current Version | Previous Version | Text Only | Print | Product List | Glossary On
Versions: 1 2 3 4 5 6 7 8 9 10 11 12 13 14 15 16 17 18 19 20 21 22 23 24 25 26 27 28 29 30 31 32 33 34 35 36 37 38 39 40 41 42 43 44 45 46 47 48 49 50
000
ASUS44 KMEG 031710
RWRTN
TENNESSEE HOURLY STATE WEATHER ROUNDUP
NATIONAL WEATHER SERVICE MEMPHIS TN
1200 PM CDT FRI JUL 03 2015

TNZ002-004-019-021-049-052-054-088>092-031800-
WEST TENNESSEE

CITY           SKY/WX    TMP DP  RH WIND       PRES   REMARKS
MEMPHIS INTL   LGT RAIN  73  72  94 W9        29.98R VSB 1
NWS MEMPHIS      N/A     72 N/A N/A MISG        N/A
JACKSON        PTSUNNY   78  70  76 W6        29.92R
DYERSBURG        N/A    N/A N/A N/A MISG        N/A
PARIS          CLOUDY    77  70  78 W6        29.92S
LEXINGTON      PTSUNNY   81  72  74 W9        29.92S
$$

TNZ008-025-027-028-033-062-065-066-031800-
NORTH MIDDLE TENNESSEE

CITY           SKY/WX    TMP DP  RH WIND       PRES   REMARKS
NASHVILLE      PTSUNNY   82  71  69 W5        29.91F
CLARKSVILLE    CLOUDY    77  70  79 W10       29.89F
SMYRNA         CLOUDY    79  71  76 W10       29.92F
COOKEVILLE       N/A     81  72  74 W7        29.93S
CROSSVILLE     CLOUDY    74  65  73 SW9G22    29.98S
$$

TNZ061-075-076-078-094-096-097-031800-
SOUTH MIDDLE TENNESSEE

CITY           SKY/WX    TMP DP  RH WIND       PRES   REMARKS
FAYETTEVILLE   CLOUDY    72  70  94 W13       29.98R
TULLAHOMA      CLOUDY    72  70  94 SW9       29.97S
WINCHESTER     CLOUDY    72  70  94 SW6       29.98S
MCMINNVILLE    CLOUDY    72  72 100 SW6       29.96S
COLUMBIA       CLOUDY    75  73  94 SW12      29.93R
SHELBYVILLE    CLOUDY    73  73 100 SW5         N/A
$$

TNZ017-018-042-046-047-031800-
NORTHEAST TENNESSEE

CITY           SKY/WX    TMP DP  RH WIND       PRES   REMARKS
TRI CITIES     RAIN      70  67  90 S5        29.95R FOG
ELIZABETHTON   HVY RAIN  68  66  94 N7        29.95R VSB 1/2
$$

TNZ012-013-036-069-073-074-031800-
CENTRAL EAST TENNESSEE

CITY           SKY/WX    TMP DP  RH WIND       PRES   REMARKS
KNOXVILLE      CLOUDY    74  71  91 S18G25    29.93F
OAK RIDGE      LGT RAIN  74  71  91 VRB3      29.94F FOG
GATLINBURG     MOSUNNY   73  70  88 SW7       29.93F
MORRISTOWN     MOSUNNY   73  72  94 W9        29.96S
$$

TNZ083-085-099-031800-
SOUTHEAST TENNESSEE

CITY           SKY/WX    TMP DP  RH WIND       PRES   REMARKS
CHATTANOOGA    LGT RAIN  72  70  93 SE3       29.97F FOG
$$

SKY/WX REPORTED AS FAIR MEANS FEW OR NO CLOUDS BELOW
12 THOUSAND FEET.



USA.gov is the U.S. government's official web portal to all federal, state and local government web resources and services.